[[[{"header":{"parameterUnit":"kt","parameterCategory":2,"dx":1,"dy":1,"la1":30.253999710083008,"la2":30.299108505249023,"lo1":-89.0895004272461,"lo2":-89.04439544677734,"nx":28,"ny":28,"refTime":"2022-10-14T21:00:00:Z","depth":0,"parameterNumber":1,"parameterNumberName":"U-component_of_WINDS"},"data":[-5.0202,-5.0235,-5.0201,-5.0225,-5.0198,-5.0208,-5.02,-5.0188,-5.0169,-5.0179,-5.0179,-5.0148,-5.0116,-5.0109,-5.0108,-5.0094,-5.0095,-5.0136,-5.0112,-4.9962,-4.9939,-4.9917,-4.9904,-5.0138,-5.0138,-5.027,-5.0271,-5.0272,-5.0108,-5.0081,-5.0082,-5.0058,-5.006,-5.0002,-4.9979,-4.9984,-4.9994,-4.9971,-4.9967,-4.9973,-4.9973,-4.9924,-4.9918,-4.9936,-4.9906,-4.9937,-4.9932,-4.9928,-4.9768,-4.9756,-4.9961,-4.9961,-4.9961,-4.9961,-4.9961,-4.9961,-4.9925,-4.9946,-4.9909,-4.9908,-4.9887,-4.9872,-4.9886,-4.9844,-4.9844,-4.983,-4.9787,-4.9798,-4.9766,-4.9738,-4.972,-4.9729,-4.9687,-4.9708,-4.9713,-4.9718,-4.9731,-4.9547,-4.9726,-4.9726,-4.9725,-4.9724,-4.9724,0,-4.9778,-4.9746,-4.9741,-4.9728,-4.9725,-4.9711,-4.969,-4.9699,-4.9614,-4.9618,-4.962,-4.9615,-4.9607,-4.9605,-4.9589,-4.9563,-4.9497,-4.9487,-4.9501,-4.952,-4.9543,-4.9531,-4.9271,-4.948,-4.9478,-4.9476,-4.9475,-4.9474,-4.9588,-4.9616,-4.9556,-4.9559,-4.9536,-4.9542,-4.9537,-4.9459,-4.9458,-4.9422,-4.9444,-4.9441,-4.9432,-4.9443,-4.939,-4.9383,-4.9349,-4.9434,-4.9347,-4.9369,-4.9349,-4.9346,-4.9349,-4.945,-4.9453,-4.9456,-4.9458,0,-4.9486,-4.942,-4.9449,-4.9385,-4.937,-4.9404,-4.9349,-4.9366,-4.932,-4.9338,-4.9338,-4.9265,-4.9268,-4.9199,-4.9188,-4.9153,-4.9212,-4.9182,-4.9224,-4.9213,-4.9281,-4.9275,-4.9513,-4.954,-4.93,-4.9303,-4.9305,0,-4.9296,-4.9334,-4.9234,-4.9254,-4.9295,-4.9212,-4.9256,-4.9219,-4.9185,-4.9197,-4.9111,-4.9125,-4.9034,-4.9039,-4.8986,-4.9023,-4.902,-4.8994,-4.8979,-4.8999,-4.9003,-4.8993,-4.898,-4.8944,-4.8943,-4.8942,-4.8941,0,-4.9138,-4.9127,-4.9159,-4.9146,-4.9077,-4.9095,-4.9068,-4.9026,-4.902,-4.9003,-4.8998,-4.8984,-4.8976,-4.8968,-4.8898,-4.8842,-4.8941,-4.8848,-4.8913,-4.8915,-4.8933,-4.8932,-4.9165,-4.8939,-4.8939,-4.8938,-4.8938,0,-4.8971,-4.8952,-4.9008,-4.8948,-4.8948,-4.8969,-4.8947,-4.8948,-4.8911,-4.8877,-4.8862,-4.8792,-4.8816,-4.8731,-4.8764,-4.8711,-4.8709,-4.8685,-4.8689,-4.8682,-4.8586,-4.8723,-4.8955,-4.8975,-4.8685,-4.8683,-4.8681,0,-4.8809,-4.8845,-4.877,-4.8825,-4.8831,-4.8729,-4.8752,-4.8719,-4.8675,-4.8675,-4.8626,-4.8626,-4.8547,-4.8536,-4.8563,-4.8511,-4.8582,-4.85,-4.8503,-4.8504,-4.8513,-4.8726,-4.8775,-4.8913,-4.8653,-4.8656,-4.8658,0,-4.8672,-4.8582,-4.8596,-4.8575,-4.8514,-4.8517,-4.8544,-4.8523,-4.8527,-4.8498,-4.8517,-4.8515,-4.8455,-4.8437,-4.8377,-4.8408,-4.8532,-4.8337,-4.8335,-4.8374,-4.8632,-4.868,-4.8703,-4.8486,-4.8489,-4.8491,-4.8636,0,-4.8433,-4.8439,-4.8475,-4.8428,-4.8419,-4.8447,-4.8365,-4.8367,-4.8309,-4.8258,-4.8285,-4.8235,-4.8212,-4.8219,-4.816,-4.8253,-4.8225,-4.8159,-4.8064,-4.8206,-4.8252,-4.827,-4.8005,-4.8002,-4.7999,-4.7997,0,0,-4.8293,-4.8297,-4.8208,-4.8226,-4.8212,-4.81,-4.8138,-4.8111,-4.8059,-4.8052,-4.8001,-4.7988,-4.7948,-4.7988,-4.8026,-4.8017,-4.8026,-4.7977,-4.814,-4.8156,-4.8171,-4.8221,-4.8242,-4.7992,-4.7991,-4.799,-4.7989,0,-4.8185,-4.8145,-4.8181,-4.8149,-4.8097,-4.8039,-4.8049,-4.7976,-4.7944,-4.7967,-4.7872,-4.7878,-4.7867,-4.7837,-4.7821,-4.7973,-4.7898,-4.7972,-4.8081,-4.8116,-4.8136,-4.8153,-4.8207,-4.8227,-4.7982,-4.7983,-4.7983,0,-4.8033,-4.7979,-4.7986,-4.7945,-4.7909,-4.7915,-4.7798,-4.7809,-4.7813,-4.7685,-4.7708,-4.7668,-4.762,-4.7668,-4.7686,-4.7638,-4.7788,-4.7724,-4.7739,-4.7737,-4.7767,-4.7791,-4.7812,-4.7528,-4.7527,-4.7526,0,0,-4.7952,-4.7954,-4.7866,-4.7915,-4.7899,-4.7811,-4.7805,-4.7743,-4.77,-4.7683,-4.7627,-4.759,-4.7583,-4.758,-4.7569,-4.7633,-4.7616,-4.7671,-4.7693,-4.7711,-4.7719,-4.7753,-4.7777,-4.7521,-4.7521,-4.7521,0,0,-4.7911,-4.781,-4.7756,-4.7801,-4.7765,-4.768,-4.7713,-4.7646,-4.7625,-4.7611,-4.7507,-4.7492,-4.7534,-4.7497,-4.7445,-4.7533,-4.7443,-4.7453,-4.7554,-4.758,-4.7601,-4.7607,-4.7313,0,0,0,0,0,-4.7754,-4.7823,-4.7776,-4.777,-4.7714,-4.7708,-4.77,-4.7613,-4.7552,-4.7581,-4.7524,-4.7444,-4.7448,-4.74,-4.7396,-4.7453,-4.7461,-4.7472,-4.7482,-4.7627,-4.7655,-4.7679,0,0,0,0,0,0,-4.7751,-4.7744,-4.7773,-4.7693,-4.7679,-4.7704,-4.758,-4.7559,-4.7547,-4.7531,-4.7458,-4.7442,-4.7368,-4.7395,-4.7394,-4.745,-4.7314,-4.7465,-4.7474,-4.7482,-4.7637,-4.7659,-4.7679,0,0,0,0,0,-4.7748,-4.7743,-4.7674,-4.7691,-4.768,-4.7582,-4.7577,-4.7558,-4.7547,-4.7456,-4.7437,-4.7483,-4.7372,-4.7365,-4.7394,-4.7452,-4.7314,-4.7314,-4.7471,-4.7478,-4.7485,-4.7648,0,0,0,0,0,0,-4.7746,-4.7725,-4.767,-4.7663,-4.7656,-4.7579,-4.7564,-4.7558,-4.747,-4.7452,-4.7475,-4.7464,-4.7376,-4.737,-4.7364,-4.7459,-4.7315,-4.7314,-4.7314,-4.7476,-4.7482,-4.7487,0,0,0,0,0,0,-4.7728,-4.7721,-4.7667,-4.7628,-4.7615,-4.7577,-4.7563,-4.7574,-4.7471,-4.7494,-4.7482,-4.7471,-4.7384,-4.7373,-4.7369,-4.7389,-4.7315,-4.7315,-4.7314,-4.7314,-4.7481,-4.7485,0,0,0,0,0,0,-4.7723,-4.7717,-4.7629,-4.762,-4.7609,-4.7527,-4.7584,-4.7532,-4.7437,-4.75,-4.7426,-4.7421,-4.739,-4.7384,-4.7373,-4.7396,-4.7391,-4.7315,-4.7315,-4.7315,-4.7315,0,0,0,0,0,0,0,-4.772,-4.7781,-4.771,-4.7613,-4.7603,-4.7602,-4.76,-4.7598,-4.7436,-4.7432,-4.7428,-4.7423,-4.7317,-4.7316,-4.7316,-4.7401,0,0,-4.7315,-4.7315,0,0,0,0,0,0,0,0,-4.7782,-4.7781,-4.771,-4.7708,-4.7707,-4.7601,-4.76,-4.7598,-4.7435,-4.7432,-4.7428,-4.7425,-4.7317,-4.7316,-4.7316,0,0,0,0,0,0,0,0,0,0,0,0,0,0,0,-4.771,-4.7708,0,-4.7601,-4.76,-4.7599,-4.7435,-4.7432,-4.7429,-4.7426,-4.7317,-4.7316,-4.7316,0,0,0,0,0,0,0,0,0,0,0,0,0,0,0,0,0,0,0,0,0,0,0,0,0,0,0,0,0,0,0,0,0,0,0,0,0,0,0,0,0,0,0,0,0,0,0,0,0,0,0,0,0,0,0,0,0,0,0,0,0,0,0,0,0,0,0,0,0]}],[{"header":{"parameterUnit":"kt","parameterCategory":2,"dx":1,"dy":1,"la1":30.253999710083008,"la2":30.299108505249023,"lo1":-89.0895004272461,"lo2":-89.04439544677734,"nx":28,"ny":28,"refTime":"2022-10-14T21:00:00:Z","depth":0,"parameterNumber":2,"parameterNumberName":"V-component_of_WINDS"},"data":[1.9951,1.9902,1.9966,1.994,1.9993,1.9986,2.0004,2.0033,2.0073,2.0071,2.0081,2.0139,2.0203,2.0229,2.0242,2.0268,2.0268,2.0206,2.0246,2.0472,2.0508,2.0542,2.0559,2.0205,2.0204,2.0003,2.0001,2.0,2.0115,2.0167,2.0172,2.022,2.0224,2.0325,2.0371,2.0367,2.0357,2.0405,2.0418,2.042,2.043,2.0517,2.0536,2.0514,2.0561,2.0515,2.0517,2.0525,2.077,2.0787,2.0476,2.0476,2.0476,2.0476,2.0476,2.0476,2.043,2.0397,2.0465,2.0471,2.0512,2.0543,2.0523,2.0597,2.0601,2.063,2.0705,2.0694,2.0753,2.0807,2.0841,2.0834,2.0897,2.0865,2.0857,2.0847,2.0828,2.1112,2.084,2.0841,2.0842,2.0843,2.0844,0,2.0681,2.0738,2.0746,2.0774,2.0782,2.0808,2.0844,2.0833,2.0973,2.0969,2.0971,2.0982,2.1003,2.1011,2.1043,2.1085,2.1186,2.1203,2.1182,2.1145,2.111,2.1128,2.1524,2.121,2.1213,2.1216,2.1218,2.1219,2.1005,2.0958,2.106,2.1057,2.1093,2.1085,2.1094,2.1221,2.1224,2.1286,2.1249,2.1259,2.1273,2.1262,2.1346,2.1361,2.141,2.1284,2.1413,2.1381,2.1409,2.141,2.1407,2.1255,2.125,2.1247,2.1244,0,2.1181,2.1287,2.1236,2.1341,2.1366,2.131,2.1399,2.1371,2.1445,2.1416,2.1417,2.1532,2.1529,2.1635,2.1652,2.1707,2.1617,2.1664,2.1599,2.1614,2.1511,2.1519,2.116,2.112,2.1488,2.1484,2.1481,0,2.1498,2.1432,2.1595,2.1559,2.149,2.1621,2.1548,2.1605,2.1659,2.1638,2.1772,2.1748,2.1888,2.1879,2.196,2.1905,2.1908,2.1946,2.1968,2.1934,2.1929,2.1936,2.1952,2.202,2.2022,2.2023,2.2024,0,2.1763,2.1772,2.1715,2.1734,2.1838,2.1807,2.1849,2.191,2.1916,2.1942,2.1947,2.1966,2.1975,2.1988,2.2092,2.2175,2.2026,2.2163,2.2066,2.2063,2.2026,2.2026,2.1683,2.2027,2.2027,2.2028,2.2028,0,2.2035,2.2061,2.1962,2.2053,2.2049,2.201,2.204,2.2032,2.2086,2.2136,2.2156,2.2257,2.2218,2.2346,2.2293,2.2374,2.2375,2.2409,2.2404,2.2406,2.2546,2.2338,2.2001,2.197,2.2409,2.2413,2.2416,0,2.231,2.2238,2.2351,2.2253,2.2235,2.239,2.2349,2.2393,2.2456,2.245,2.252,2.2509,2.2627,2.2638,2.2599,2.2669,2.2564,2.2686,2.2672,2.267,2.2654,2.2345,2.2268,2.2064,2.2458,2.2453,2.245,0,2.2535,2.2663,2.2637,2.2666,2.2746,2.273,2.2683,2.2703,2.2693,2.2726,2.269,2.2677,2.2767,2.2783,2.2867,2.2819,2.2639,2.292,2.2924,2.2866,2.2487,2.2415,2.238,2.2705,2.2701,2.2697,2.2483,0,2.2925,2.2903,2.2839,2.2892,2.2898,2.2842,2.2957,2.2947,2.303,2.3097,2.3045,2.3106,2.3123,2.3111,2.3188,2.3046,2.3086,2.318,2.3312,2.3108,2.304,2.3013,2.3403,2.3408,2.3412,2.3415,0,0,2.3161,2.3131,2.3255,2.3215,2.3227,2.3388,2.3318,2.3348,2.3402,2.3407,2.3482,2.3471,2.3516,2.344,2.3385,2.3391,2.3376,2.3442,2.3204,2.318,2.3158,2.3084,2.3053,2.3422,2.3423,2.3425,2.3426,0,2.3327,2.3374,2.3304,2.3342,2.3402,2.3478,2.3461,2.3547,2.3587,2.3536,2.3667,2.3649,2.3634,2.3667,2.3681,2.3455,2.3553,2.3451,2.3293,2.3239,2.3209,2.3184,2.3105,2.3074,2.3435,2.3434,2.3434,0,2.357,2.3636,2.3615,2.365,2.369,2.3665,2.3834,2.38,2.3784,2.3957,2.3903,2.3951,2.4002,2.3915,2.3879,2.3946,2.3708,2.3802,2.3781,2.3779,2.3732,2.3697,2.3665,2.4077,2.4079,2.4081,0,0,2.3698,2.3678,2.3787,2.3694,2.371,2.3822,2.382,2.3902,2.3946,2.3963,2.4027,2.4064,2.4059,2.4051,2.4051,2.3938,2.3959,2.3876,2.3846,2.3821,2.3805,2.3751,2.3716,2.4087,2.4088,2.4088,0,0,2.3758,2.3882,2.3958,2.3865,2.3904,2.4003,2.3941,2.4036,2.4047,2.4066,2.42,2.4215,2.4135,2.4176,2.4254,2.4099,2.4228,2.4211,2.4075,2.4039,2.4009,2.4,2.4432,0,0,0,0,0,2.3988,2.3868,2.3935,2.3937,2.398,2.3966,2.3972,2.4082,2.4172,2.4121,2.419,2.4295,2.4247,2.4319,2.4317,2.4228,2.4175,2.4159,2.4145,2.3943,2.3904,2.387,0,0,0,0,0,0,2.399,2.3991,2.3939,2.4031,2.4042,2.3972,2.4148,2.4175,2.418,2.4201,2.4279,2.4297,2.4388,2.4327,2.4324,2.4237,2.4433,2.4168,2.4155,2.4144,2.393,2.3897,2.387,0,0,0,0,0,2.3991,2.3993,2.4033,2.4034,2.4043,2.416,2.4153,2.4177,2.4183,2.4289,2.4311,2.4265,2.4383,2.4388,2.4326,2.4236,2.4436,2.4435,2.416,2.415,2.414,2.3914,0,0,0,0,0,0,2.3993,2.4014,2.4038,2.4045,2.4088,2.4167,2.4183,2.4178,2.4273,2.4293,2.4282,2.4298,2.4378,2.4383,2.4385,2.4229,2.4439,2.4437,2.4436,2.4152,2.4144,2.4137,0,0,0,0,0,0,2.4014,2.4018,2.4042,2.4103,2.4118,2.4171,2.4186,2.4148,2.4271,2.4261,2.4277,2.4288,2.4373,2.4378,2.4381,2.4317,2.4441,2.4439,2.4438,2.4437,2.4145,2.4139,0,0,0,0,0,0,2.4018,2.4022,2.4102,2.4113,2.4127,2.4213,2.414,2.4177,2.4327,2.4254,2.4343,2.435,2.4365,2.437,2.4377,2.4311,2.4315,2.4441,2.444,2.4439,2.4438,0,0,0,0,0,0,0,2.4021,2.3968,2.3997,2.4122,2.4134,2.4109,2.411,2.4112,2.4328,2.4335,2.4341,2.4347,2.445,2.4448,2.4446,2.4306,0,0,2.4441,2.444,0,0,0,0,0,0,0,0,2.3969,2.3969,2.3997,2.3999,2.4,2.4109,2.411,2.4112,2.4329,2.4335,2.434,2.4345,2.4449,2.4448,2.4447,0,0,0,0,0,0,0,0,0,0,0,0,0,0,0,2.3998,2.3999,0,2.4109,2.411,2.4112,2.433,2.4334,2.4339,2.4343,2.4449,2.4448,2.4447,0,0,0,0,0,0,0,0,0,0,0,0,0,0,0,0,0,0,0,0,0,0,0,0,0,0,0,0,0,0,0,0,0,0,0,0,0,0,0,0,0,0,0,0,0,0,0,0,0,0,0,0,0,0,0,0,0,0,0,0,0,0,0,0,0,0,0,0,0]}]]]